Location: Unspecified
(0.0000°N, 0.0000°E)
Time: 07:20:22
(UTC+00:00)

Courier 1B - Pass Details

Date: 30 September 2023
Orbit: 962 x 1208 km, 28.3° (Epoch: 06 December)

Event Time Altitude Azimuth Distance (km) Brightness Sun altitude
Rises 18:40:35 0° 309° (NW) 4,074 11.5 -12.6°
Reaches altitude 10° 18:43:33 10° 314° (NW) 3,090 10.8 -13.4°
Maximum altitude 18:51:01 54° 29° (NNE) 1,354 8.0 -15.2°
Enters shadow 18:55:38 23° 98° (E) 2,169 8.7 -16.4°
Drops below altitude 10° 18:58:05 10° 105° (ESE) 2,933 - -17.0°
Sets 19:00:49 0° 110° (ESE) 3,853 - -17.7°
